This is the latest recevied weather packets stored in our database for station/object KO4LCK. If no packets are shown the sender has not sent any weather packets the latest 10 day(s).
| Time | Temp. | Humidity | Pressure | Rain* | Wind** | Luminosity | Snow |
|---|---|---|---|---|---|---|---|
| 1788460920 | 37.22° C | 43% | 1017.4 hPa | 0 mm | - | 682 W/m² | - |
| 1788460604 | 36.67° C | 45% | 1017.6 hPa | 0 mm | - | 795 W/m² | - |
| 1788460299 | 36.11° C | 46% | 1017.6 hPa | 0 mm | - | 814 W/m² | - |
| 1788459998 | 36.11° C | 46% | 1017.8 hPa | 0 mm | - | 800 W/m² | - |
| 1788459694 | 35° C | 54% | 1017.7 hPa | 0 mm | - | 782 W/m² | - |
| 1788459392 | 35° C | 50% | 1017.8 hPa | 0 mm | - | 180 W/m² | - |
| 1788459087 | 35.56° C | 50% | 1018 hPa | 0 mm | - | 170 W/m² | - |
| 1788458782 | 36.11° C | 48% | 1017.9 hPa | 0 mm | - | 154 W/m² | - |
| 1788458477 | 36.67° C | 45% | 1018.2 hPa | 0 mm | - | 133 W/m² | - |
| 1788458176 | 36.67° C | 44% | 1018.2 hPa | 0 mm | - | 189 W/m² | - |
| 1788457875 | 36.67° C | 45% | 1018 hPa | 0 mm | - | 822 W/m² | - |
| 1788457570 | 36.11° C | 45% | 1018 hPa | 0 mm | - | 741 W/m² | - |
| 1788457265 | 35° C | 49% | 1018.2 hPa | 0 mm | - | 860 W/m² | - |
| 1788456959 | 34.44° C | 52% | 1018.3 hPa | 0 mm | - | 686 W/m² | - |
| 1788456656 | 35° C | 50% | 1018.3 hPa | 0 mm | - | 175 W/m² | - |
| 1788456350 | 35° C | 50% | 1018.3 hPa | 0 mm | - | 215 W/m² | - |
| 1788456046 | 35° C | 49% | 1018.4 hPa | 0 mm | - | 199 W/m² | - |
| 1788455746 | 35.56° C | 48% | 1018.4 hPa | 0 mm | - | 193 W/m² | - |
| 1788455442 | 35.56° C | 48% | 1018.4 hPa | 0 mm | - | 475 W/m² | - |
| 1788455140 | 36.11° C | 49% | 1018.6 hPa | 0 mm | - | 217 W/m² | - |
| 1788454836 | 36.11° C | 46% | 1018.6 hPa | 0 mm | - | 299 W/m² | - |
| 1788454533 | 37.22° C | 46% | 1018.7 hPa | 0 mm | - | 331 W/m² | - |
| 1788454229 | 36.67° C | 47% | 1018.6 hPa | 0 mm | - | 817 W/m² | - |
| 1788453929 | 36.67° C | 49% | 1018.7 hPa | 0 mm | - | 810 W/m² | - |
| 1788453624 | 36.11° C | 47% | 1018.8 hPa | 0 mm | - | 781 W/m² | - |
* Rain latest hour (hover to see other rain measurements)
** Current wind speed in m/s (hover to see current wind gust speed)